IRIDIUM 33 DEB, 39778

Orbit data source: Space-Track

IRIDIUM 33 DEB, 39778 is space debris in LEO originally from a launch on Sun, 14 Sep 1997 UTC launched from the Tyuratam Missile And Space Complex (TTMTR). The debris from Iridium 33, an American commercial communications satellite, has been tracked extensively since its accidental collision with the defunct Russian satellite Cosmos 2251 in 2009. This event, occurring at high speed in low Earth orbit (LEO), generated thousands of pieces of space debris, significantly increasing the risk of further collisions. The Iridium 33 debris cloud has impacted space traffic management and orbital debris mitigation strategies, making it a subject of ongoing study in space situational awareness.

Loading next visibility...
Identifier
39778, 1997-051AAK
Orbit
LEO
Country
Flag of USUS
Related business
Manufacturer
Unknown
Mission
Spacecraft
Bus & Motor
Unknown
Mass
Unknown
Launch date (UTC)
1997-09-14 (28 years ago)
Launch vehicle
Unknown
Launch site
Tyuratam Missile And Space Complex (TTMTR)
Object type
Payload
Rocket body
Debris
Shape & HBR
Unknown
Radar Cross Section
Small (<0.1 m²)

Expand to show TLE details & history
Last TLE update: 18 hours ago

TLE from 18 hours ago
0 IRIDIUM 33 DEB
1 39778U 97051AAK 25259.77014545  .00003656  00000-0  87888-3 0  9994
2 39778  86.3698  80.9511 0006406 330.9621  29.1228 14.53136218594297
Epoch: 2025-09-16T18:29Z
TLE epoch observation values (Epoch: 2025-09-16T18:29:00.566Z)
Latitude
-0.00005°
Longitude
167.74306°
Altitude
714.531 km
Speed
7.5 km/s
True Right ascension
05h 23m 48s
True Declination
0° 00' 00"
Sunlit
Object was in daylight at epoch
Visualization orbit readout
Latitude
Unknown
Longitude
Unknown
Altitude
Unknown
Speed
Unknown
Apparent Right ascension
Unknown
Apparent Declination
Unknown
Sunlit
N/A
Visualization observer readout
Local Sidereal Time
04:54:33
Azimuth
Unknown
Elevation
Unknown
Doppler factor
Unknown
Orbital elements
Apogee altitude
716.904 km
Perigee altitude
707.82 km
Semi-major axis
7,090.499 km
Eccentricity
0.00064
Inclination
86.3698°
RAAN
80.9511°
Arg. of periapsis
330.9621°
True anomaly
29.15855°
Mean anomaly
29.1228°
Eccentric anomaly
29.14067°
Mean motion
3.6352 °/min
Orbital period
99.03 mins
BSTAR
0.00087888
Loading maneuver chart data...
Computing Atmospheric mass density...

Documentation

Showing up to 5 results
|